Bartow, Florida, United States (33830)
Lat: 27.90N, Lon: 81.84W
Wx Zone: FLZ052
Local Info
Past Weather Observations for Saturday, February 6, 2016

NOTE: This archive is for the closest National Weather Service station to Bartow. Information may differ from the station used for current weather conditions.

Click here for Long-term Archive

Time Weather Temperature Dewpoint Humidity Pressure Winds Precip Visibility
23:55
Overcast
48°F / 9°C 48°F / 9°C 100% 30.06 in
(1018 mb)
WNW 9.2 mph
(WNW 15 kph)
- 10SM
23:35
Overcast
48°F / 9°C 48°F / 9°C 100% 30.06 in
(1018 mb)
WNW 6.9 mph
(WNW 11 kph)
- 10SM
23:15
Overcast
48°F / 9°C 48°F / 9°C 100% 30.06 in
(1018 mb)
WNW 9.2 mph
(WNW 15 kph)
- 10SM
22:55
Overcast
48°F / 9°C 48°F / 9°C 100% 30.06 in
(1018 mb)
WNW 8.1 mph
(WNW 13 kph)
- 10SM
22:35
Overcast
48°F / 9°C 48°F / 9°C 100% 30.06 in
(1018 mb)
NW 9.2 mph
(NW 15 kph)
- 10SM
22:15
Overcast
Unknown Precip
48°F / 9°C 48°F / 9°C 100% 30.09 in
(1019 mb)
NW 10.4 mph
(NW 17 kph)
- 10SM
21:55
Overcast
48°F / 9°C 48°F / 9°C 100% 30.06 in
(1018 mb)
NW 9.2 mph
(NW 15 kph)
- 10SM
21:35
Overcast
50°F / 10°C 50°F / 10°C 100% 30.09 in
(1019 mb)
WNW 8.1 mph
(WNW 13 kph)
- 10SM
21:15
Overcast
50°F / 10°C 50°F / 10°C 100% 30.06 in
(1018 mb)
NW 11.5 mph
(NW 19 kph)
- 10SM
20:55
Overcast
50°F / 10°C 50°F / 10°C 100% 30.09 in
(1019 mb)
NW 8.1 mph
(NW 13 kph)
- 10SM
20:35
Overcast
Rain
50°F / 10°C 50°F / 10°C 100% 30.09 in
(1019 mb)
NW 11.5 mph
(NW 19 kph)
- 5SM
20:15
Overcast
Light Rain
50°F / 10°C 50°F / 10°C 100% 30.09 in
(1019 mb)
NW 10.4 mph
(NW 17 kph)
- 5SM
19:55
Overcast
Light Rain
52°F / 11°C 52°F / 11°C 100% 30.09 in
(1019 mb)
WNW 9.2 mph
(WNW 15 kph)
- 6SM
19:15
Overcast
Light Rain
54°F / 12°C 54°F / 12°C 100% 30.09 in
(1019 mb)
W 11.5 mph
(W 19 kph)
- 7SM
18:55
Overcast
Light Rain
54°F / 12°C 54°F / 12°C 100% 30.09 in
(1019 mb)
WNW 10.4 mph
(WNW 17 kph)
- 4SM
18:35
Overcast
Rain
54°F / 12°C 54°F / 12°C 100% 30.09 in
(1019 mb)
W 9.2 mph
(W 15 kph)
- 4SM
18:15
Overcast
Light Rain
54°F / 12°C 54°F / 12°C 100% 30.09 in
(1019 mb)
WNW 8.1 mph
(WNW 13 kph)
- 3SM
17:55
Overcast
Rain
55°F / 13°C 55°F / 13°C 100% 30.09 in
(1019 mb)
W 9.2 mph
(W 15 kph)
- 3SM
17:35
Overcast
Rain
55°F / 13°C N/A N/A 30.09 in
(1019 mb)
W 10.4 mph
(W 17 kph)
- 2 1/2SM
16:51
Overcast
Rain
57°F / 14°C 57°F / 14°C 100% 30.09 in
(1019 mb)
WNW 10.4 mph
(WNW 17 kph)
- 2 1/2SM
16:33
Overcast
Light Rain
57°F / 14°C 57°F / 14°C 100% 30.09 in
(1019 mb)
Calm - 3SM
15:48
Partly Cloudy
Light Rain
57°F / 14°C 57°F / 14°C 100% 30.06 in
(1018 mb)
NNE 4.6 mph
(NNE 7 kph)
- 4SM
14:47
Mostly Cloudy
57°F / 14°C 57°F / 14°C 100% 30.09 in
(1019 mb)
N 5.8 mph
(N 9 kph)
- 7SM
13:56
Mostly Cloudy
59°F / 15°C 55°F / 13°C 88% 30.12 in
(1020 mb)
N 4.6 mph
(N 7 kph)
- 7SM
12:58
Mostly Cloudy
59°F / 15°C 54°F / 12°C 82% 30.15 in
(1021 mb)
Calm - 7SM
11:55
Mostly Cloudy
59°F / 15°C 50°F / 10°C 72% 30.18 in
(1022 mb)
N 5.8 mph
(N 9 kph)
- 7SM
10:48
Mostly Cloudy
59°F / 15°C 48°F / 9°C 68% 30.21 in
(1023 mb)
NNE 6.9 mph
(NNE 11 kph)
- 7SM
09:51
Mostly Cloudy
55°F / 13°C 48°F / 9°C 77% 30.21 in
(1023 mb)
N 5.8 mph
(N 9 kph)
- 7SM
08:49
Mostly Cloudy
52°F / 11°C 46°F / 8°C 82% 30.21 in
(1023 mb)
NNE 8.1 mph
(NNE 13 kph)
- 8SM
07:47
Partly Cloudy
48°F / 9°C 46°F / 8°C 94% 30.18 in
(1022 mb)
N 4.6 mph
(N 7 kph)
- 9SM
07:26
Partly Cloudy
48°F / 9°C 45°F / 7°C 87% 30.18 in
(1022 mb)
Calm - 9SM
07:15
Clear
48°F / 9°C 45°F / 7°C 87% 30.18 in
(1022 mb)
Calm - 10SM
06:55
Partly Cloudy
48°F / 9°C 45°F / 7°C 87% 30.18 in
(1022 mb)
N 5.8 mph
(N 9 kph)
- 10SM
06:35
Partly Cloudy
48°F / 9°C 45°F / 7°C 87% 30.18 in
(1022 mb)
Calm - 10SM
06:15
Mostly Cloudy
48°F / 9°C 45°F / 7°C 87% 30.18 in
(1022 mb)
N 8.1 mph
(N 13 kph)
- 10SM
05:55
Mostly Cloudy
48°F / 9°C 45°F / 7°C 87% 30.21 in
(1023 mb)
NW 3.5 mph
(NW 6 kph)
- 10SM
05:35
Mostly Cloudy
48°F / 9°C 45°F / 7°C 87% 30.18 in
(1022 mb)
NW 4.6 mph
(NW 7 kph)
- 10SM
05:15
Mostly Cloudy
48°F / 9°C 45°F / 7°C 87% 30.18 in
(1022 mb)
N 6.9 mph
(N 11 kph)
- 10SM
04:55
Mostly Cloudy
48°F / 9°C 45°F / 7°C 87% 30.18 in
(1022 mb)
N 6.9 mph
(N 11 kph)
- 10SM
04:35
Mostly Cloudy
48°F / 9°C 43°F / 6°C 82% 30.18 in
(1022 mb)
NNW 4.6 mph
(NNW 7 kph)
- 10SM
04:15
Mostly Cloudy
48°F / 9°C 43°F / 6°C 82% 30.18 in
(1022 mb)
NNW 8.1 mph
(NNW 13 kph)
- 10SM
03:55
Partly Cloudy
48°F / 9°C 43°F / 6°C 82% 30.18 in
(1022 mb)
NNW 5.8 mph
(NNW 9 kph)
- 10SM
03:35
Partly Cloudy
48°F / 9°C 43°F / 6°C 82% 30.18 in
(1022 mb)
N 9.2 mph
(N 15 kph)
- 10SM
03:15
Clear
48°F / 9°C 43°F / 6°C 82% 30.18 in
(1022 mb)
N 6.9 mph
(N 11 kph)
- 10SM
02:55
Partly Cloudy
48°F / 9°C 41°F / 5°C 76% 30.18 in
(1022 mb)
N 8.1 mph
(N 13 kph)
- 10SM
02:35
Partly Cloudy
48°F / 9°C 41°F / 5°C 76% 30.18 in
(1022 mb)
N 9.2 mph
(N 15 kph)
- 10SM
02:15
Partly Cloudy
48°F / 9°C 41°F / 5°C 76% 30.21 in
(1023 mb)
N 9.2 mph
(N 15 kph)
- 10SM
01:55
Clear
48°F / 9°C 41°F / 5°C 76% 30.21 in
(1023 mb)
N 11.5 mph
(N 19 kph)
- 10SM
01:35
Clear
48°F / 9°C 41°F / 5°C 76% 30.21 in
(1023 mb)
NNW 8.1 mph
(NNW 13 kph)
- 10SM
01:15
Clear
48°F / 9°C 41°F / 5°C 76% 30.21 in
(1023 mb)
N 8.1 mph
(N 13 kph)
- 10SM
00:55
Clear
48°F / 9°C 41°F / 5°C 76% 30.21 in
(1023 mb)
N 5.8 mph
(N 9 kph)
- 10SM
00:35
Clear
48°F / 9°C 41°F / 5°C 76% 30.24 in
(1024 mb)
NNW 8.1 mph
(NNW 13 kph)
- 10SM
00:15
Clear
48°F / 9°C 41°F / 5°C 76% 30.24 in
(1024 mb)
N 5.8 mph
(N 9 kph)
- 10SM
Time Weather Temperature Dewpoint Humidity Pressure Winds Precip Visibility


Weather for websites

WeatherForYou.com, LLC is not responsible for any damages or problems caused by this service. Current weather conditions are obtained from the closest station including government and personal stations which may have varying degrees of accuracy. Weather forecasts are derived from the NOAA NDFD. Like all things, this site belongs to Jesus Christ... He just trusts us to maintain it. If you have any questions or comments email webmaster@weatherforyou.com

Copyright © 2016, WeatherForYou.com LLC. All rights reserved.